(219178) = 1999 TX175

Discovered at Socorro on 1999-10-10 by LINEAR.

Orbit

Orbit type: Main Belt

Note: WebGL enabled browser required.

epoch2023-09-13.0
epoch JD2460200.5
perihelion date2019-06-27.56643
perihelion JD2458662.06643
argument of perihelion (°)105.15187
ascending node (°)229.76676
inclination (°)8.89304
eccentricity0.0787147
perihelion distance (AU)2.7337429
Tisserand w.r.t. Jupiter3.2
ΔV w.r.t. Earth (km/sec)10.7
semimajor axis (AU)2.9673141
mean anomaly (°)296.64519
mean daily motion (°/day)0.19282290
aphelion distance (AU)3.201
period (years)5.11
P-vector [x]0.89684840
P-vector [y]-0.44140371
P-vector [z]-0.02873532
Q-vector [x]0.42630366
Q-vector [y]0.84518044
Q-vector [z]0.32238984
absolute magnitude15.25
phase slope0.15
uncertainty0
referenceMPEC 2024-A12
observations used603
oppositions16
arc length (days)9582
first opposition used1997
last opposition used2023
residual rms (arc-secs)0.68
perturbers coarse indicatorM-v
perturbers precise indicator003Ek
first observation date used1997-04-12.0
last observation date used2023-07-07.0
computer nameMPCLINUX
JD of orbit computation2456966.798161
perihelion JD uncertainty (days)3.8689E-04
argument of perihelion uncertainty (°)1.0393E-04
ascending node uncertainty (°)6.9851E-05
inclination uncertainty (°)1.2585E-05
eccentricity uncertainty 1.4466E-07
perihelion distance uncertainty (AU)4.3593E-07
Minimum Orbit Intersection Distances (in AU)
for orbit epoch: 2460200.5, reference: E2024-A12
Mercury2.34136
Venus2.02711
Earth1.74136
Mars1.38733
Jupiter2.08681
Saturn5.99525
Uranus15.2952
Neptune26.9617

Observations

613 total observations over interval: 1997 04 12.35453 – 2023 07 07.352793
These data are available for download (format description).

Date (UT) J2000 RA J2000 Dec Magn Location Ref
1997 04 12.35453 13 20 21.65 -14 48 25.1 19.8 V 691 – Steward Observatory, Kitt Peak-Spacewatch MPS 118254
1997 04 12.36111 13 20 21.38 -14 48 22.3 19.9 V 691 – Steward Observatory, Kitt Peak-Spacewatch MPS 118254
1997 04 12.36699 13 20 21.09 -14 48 20.3 19.9 V 691 – Steward Observatory, Kitt Peak-Spacewatch MPS 118254
1997 04 12.38203 13 20 20.39 -14 48 14.4 19.7 V 691 – Steward Observatory, Kitt Peak-Spacewatch MPS 118254
1999 10 10.27511 02 37 36.78 +19 17 25.5 19.6   704 – Lincoln Laboratory ETS, New Mexico MPS 13879
1999 10 10.29122 02 37 36.07 +19 17 19.9 19.4   704 – Lincoln Laboratory ETS, New Mexico MPS 13879
1999 10 10.30703 02 37 35.47 +19 17 15.4 19.7   704 – Lincoln Laboratory ETS, New Mexico MPS 13879
1999 10 10.33791 02 37 34.29 +19 17 06.4 19.6   704 – Lincoln Laboratory ETS, New Mexico MPS 13879
1999 10 13.33739 02 35 38.56 +19 01 08.9 18.8   704 – Lincoln Laboratory ETS, New Mexico MPS 13879
1999 10 13.35304 02 35 37.95 +19 01 04.3 19.2   704 – Lincoln Laboratory ETS, New Mexico MPS 13879
1999 10 13.36900 02 35 37.29 +19 00 58.9 19.2   704 – Lincoln Laboratory ETS, New Mexico MPS 13879
1999 10 13.38464 02 35 36.59 +19 00 53.8 18.5   704 – Lincoln Laboratory ETS, New Mexico MPS 13879
1999 10 13.40074 02 35 35.94 +19 00 48.5 18.8   704 – Lincoln Laboratory ETS, New Mexico MPS 13879
1999 10 15.24989 02 34 20.60 +18 50 23.1 19.4   704 – Lincoln Laboratory ETS, New Mexico MPS 13879
1999 10 15.26581 02 34 19.94 +18 50 18.7 19.9   704 – Lincoln Laboratory ETS, New Mexico MPS 13879
1999 10 15.28161 02 34 19.21 +18 50 12.8 19.3   704 – Lincoln Laboratory ETS, New Mexico MPS 13879
1999 10 21.26847 02 29 56.68 +18 13 48.4 19.5   704 – Lincoln Laboratory ETS, New Mexico MPS 13879
1999 10 21.28387 02 29 56.00 +18 13 42.5 19.2   704 – Lincoln Laboratory ETS, New Mexico MPS 13879
1999 10 21.29939 02 29 55.23 +18 13 36.5 18.8   704 – Lincoln Laboratory ETS, New Mexico MPS 13879
1999 11 07.22913 02 16 35.49 +16 16 34.2 18.8   704 – Lincoln Laboratory ETS, New Mexico MPS 15372
1999 11 07.26162 02 16 33.91 +16 16 21.4 20.2   704 – Lincoln Laboratory ETS, New Mexico MPS 15372
1999 11 07.27788 02 16 33.10 +16 16 14.0 19.7   704 – Lincoln Laboratory ETS, New Mexico MPS 15372
1999 11 07.29408 02 16 32.37 +16 16 06.7 19.9   704 – Lincoln Laboratory ETS, New Mexico MPS 15372
1999 11 14.30366 02 11 24.82 +15 26 38.3 19.6   704 – Lincoln Laboratory ETS, New Mexico MPS 15372
1999 11 14.31793 02 11 24.22 +15 26 33.3 19.6   704 – Lincoln Laboratory ETS, New Mexico MPS 15372
1999 11 14.33221 02 11 23.71 +15 26 26.4 19.6   704 – Lincoln Laboratory ETS, New Mexico MPS 15372
2004 09 18.11363 01 59 59.10 +18 50 50.6 17.1 R 201 – Jonathan B. Postel Observatory MPC 64684
2004 09 18.12770 01 59 58.79 +18 50 47.9 17.5 R 201 – Jonathan B. Postel Observatory MPC 64684
2004 09 18.31317 01 59 54.67 +18 50 15.0 19.6   704 – Lincoln Laboratory ETS, New Mexico MPS 118254
2004 09 18.32552 01 59 54.42 +18 50 12.7 19.7   704 – Lincoln Laboratory ETS, New Mexico MPS 118254
2004 09 18.33821 01 59 54.04 +18 50 10.8 20.2   704 – Lincoln Laboratory ETS, New Mexico MPS 118254
2004 09 18.35064 01 59 53.77 +18 50 08.8 19.9   704 – Lincoln Laboratory ETS, New Mexico MPS 118254
2004 09 18.36297 01 59 53.51 +18 50 06.4 20.2   704 – Lincoln Laboratory ETS, New Mexico MPS 118254
2004 09 22.32856 01 58 12.57 +18 36 24.7 19.1 R 699 – Lowell Observatory-LONEOS MPS 119770
2004 09 22.34482 01 58 12.09 +18 36 20.4   699 – Lowell Observatory-LONEOS MPS 119770
2004 09 22.36107 01 58 11.54 +18 36 16.7   699 – Lowell Observatory-LONEOS MPS 119770
2004 09 22.37730 01 58 11.12 +18 36 12.5   699 – Lowell Observatory-LONEOS MPS 119770
2004 10 04.34141 01 51 16.56 +17 38 56.5 18.8 R 699 – Lowell Observatory-LONEOS MPS 118254
2004 10 04.36087 01 51 15.80 +17 38 47.6   699 – Lowell Observatory-LONEOS MPS 118254
2004 10 04.38038 01 51 14.91 +17 38 42.4   699 – Lowell Observatory-LONEOS MPS 118254
2004 10 04.39988 01 51 14.12 +17 38 33.9   699 – Lowell Observatory-LONEOS MPS 118254
2004 10 08.31986 01 48 30.12 +17 15 00.4 18.8 R 699 – Lowell Observatory-LONEOS MPS 116344
2004 10 08.32960 01 48 29.69 +17 14 56.4   699 – Lowell Observatory-LONEOS MPS 116344
2004 10 08.33937 01 48 29.18 +17 14 53.0   699 – Lowell Observatory-LONEOS MPS 116344
2004 10 08.34915 01 48 28.75 +17 14 48.6   699 – Lowell Observatory-LONEOS MPS 116344
2004 10 10.25960 01 47 05.47 +17 02 35.9 18.9   704 – Lincoln Laboratory ETS, New Mexico MPS 116344
2004 10 10.27155 01 47 04.99 +17 02 31.7 19.4   704 – Lincoln Laboratory ETS, New Mexico MPS 116344
2004 10 10.28331 01 47 04.46 +17 02 27.4 19.9   704 – Lincoln Laboratory ETS, New Mexico MPS 116344
2004 10 10.29520 01 47 03.87 +17 02 23.2 19.4   704 – Lincoln Laboratory ETS, New Mexico MPS 116344
2004 10 21.26309 01 38 42.10 +15 44 49.1 19.4   704 – Lincoln Laboratory ETS, New Mexico MPS 117435
2004 10 21.27482 01 38 41.52 +15 44 44.1 19.5   704 – Lincoln Laboratory ETS, New Mexico MPS 117435
2004 10 21.28667 01 38 40.96 +15 44 38.4 19.4   704 – Lincoln Laboratory ETS, New Mexico MPS 117435
2004 10 21.29841 01 38 40.39 +15 44 33.6 19.5   704 – Lincoln Laboratory ETS, New Mexico MPS 117435
2004 10 21.31019 01 38 39.88 +15 44 27.2 19.6   704 – Lincoln Laboratory ETS, New Mexico MPS 117435
2004 11 04.22455 01 28 40.01 +13 58 56.5 18.9 R 699 – Lowell Observatory-LONEOS MPS 118254
2004 11 04.24401 01 28 39.23 +13 58 48.5   699 – Lowell Observatory-LONEOS MPS 118254
2004 11 04.26348 01 28 38.54 +13 58 39.2   699 – Lowell Observatory-LONEOS MPS 118254
2004 11 04.28295 01 28 37.70 +13 58 30.8   699 – Lowell Observatory-LONEOS MPS 118254
2004 11 19.21312 01 21 00.57 +12 16 22.3 18.5 R 703 – Catalina Sky Survey MPS 119770
2004 11 19.22133 01 21 00.30 +12 16 18.4 19.3 R 703 – Catalina Sky Survey MPS 119770
2004 11 19.22961 01 21 00.18 +12 16 18.7 19.3 R 703 – Catalina Sky Survey MPS 119770
2004 11 19.23776 01 21 00.01 +12 16 14.0 18.5 R 703 – Catalina Sky Survey MPS 119770
2006 01 02.34045 07 45 41.12 +09 45 02.3 18.9   704 – Lincoln Laboratory ETS, New Mexico MPS 157535
2006 01 02.36691 07 45 39.75 +09 45 04.5 20.1   704 – Lincoln Laboratory ETS, New Mexico MPS 157535
2006 01 02.38030 07 45 39.00 +09 45 03.1 19.6   704 – Lincoln Laboratory ETS, New Mexico MPS 157535
2006 01 02.39362 07 45 38.39 +09 45 02.8 19.9   704 – Lincoln Laboratory ETS, New Mexico MPS 157535
2006 01 04.32774 07 44 02.29 +09 45 18.9 19.9 V G96 – Mt. Lemmon Survey MPS 157535
2006 01 04.33490 07 44 01.93 +09 45 19.0 19.9 V G96 – Mt. Lemmon Survey MPS 157535
2006 01 04.34204 07 44 01.53 +09 45 18.9 19.9 V G96 – Mt. Lemmon Survey MPS 157535
2006 01 04.34919 07 44 01.17 +09 45 19.3 19.8 V G96 – Mt. Lemmon Survey MPS 157535
2007 03 20.29257 12 17 29.86 -11 44 39.4 19.4 V 703 – Catalina Sky Survey MPS 204458
2007 03 20.29960 12 17 29.50 -11 44 33.6 19.6 V 703 – Catalina Sky Survey MPS 204458
2007 03 20.30662 12 17 29.18 -11 44 31.3 19.5 V 703 – Catalina Sky Survey MPS 204458
2007 03 20.31360 12 17 28.93 -11 44 29.9 19.5 V 703 – Catalina Sky Survey MPS 204458
2009 09 19.94598 01 08 57.97 +16 04 38.1 19.2 R 152 – Moletai Astronomical Observatory MPS 295713
2009 09 19.96316 01 08 57.39 +16 04 32.8 18.6 R 152 – Moletai Astronomical Observatory MPS 295713
2009 09 19.98052 01 08 56.67 +16 04 27.8 19.0 R 152 – Moletai Astronomical Observatory MPS 295713
2009 09 21.95140 01 07 43.46 +15 54 37.7 18.4 V J75 – OAM Observatory, La Sagra MPS 295713
2009 09 21.96492 01 07 42.86 +15 54 32.9 19.0 V J75 – OAM Observatory, La Sagra MPS 295713
2009 09 21.97838 01 07 42.34 +15 54 28.9 18.6 V J75 – OAM Observatory, La Sagra MPS 295713
2009 09 26.27872 01 04 51.39 +15 30 39.1 19.5   704 – Lincoln Laboratory ETS, New Mexico MPS 296819
2009 09 26.29087 01 04 50.86 +15 30 35.2 19.3   704 – Lincoln Laboratory ETS, New Mexico MPS 296819
2009 09 26.30306 01 04 50.37 +15 30 30.5 19.6   704 – Lincoln Laboratory ETS, New Mexico MPS 296819
2009 09 26.31525 01 04 49.80 +15 30 26.5 19.3   704 – Lincoln Laboratory ETS, New Mexico MPS 296819
2009 09 26.32746 01 04 49.34 +15 30 21.9 19.1   704 – Lincoln Laboratory ETS, New Mexico MPS 296819
2009 09 29.33212 01 02 42.97 +15 11 56.7 18.9 V G96 – Mt. Lemmon Survey MPS 298211
